GW3504 Weather Reports


time (UTC)temp
F
wind
direction
speed
knots
gust
knots
rain 1hr
in
rain 24hr
in
rain mn
in
humidity
%
barometer
mb
20260905135525 82 0 0.0 0.0 0.00 0.00 0.00 68 1015.4
20260905135024 82 0 0.0 0.0 0.00 0.00 0.00 68 1015.4
20260905134602 81 0 0.0 0.0 0.00 0.00 0.00 70 1015.3
20260905134025 81 0 0.0 0.0 0.00 0.00 0.00 70 1015.3
20260905133523 80 0 0.0 0.0 0.00 0.00 0.00 69 1015.3
20260905133042 80 0 0.0 0.0 0.00 0.00 0.00 70 1015.2
20260905132525 80 0 0.0 0.0 0.00 0.00 0.00 72 1015.1
20260905132022 79 0 0.0 0.0 0.00 0.00 0.00 73 1015.1
20260905131559 78 0 0.0 0.0 0.00 0.00 0.00 74 1015.1
20260905131025 77 0 0.0 0.0 0.00 0.00 0.00 77 1015.0
20260905130524 76 0 0.0 0.0 0.00 0.00 0.00 79 1014.9
20260905130045 75 0 0.0 0.0 0.00 0.00 0.00 80 1015.0
20260905125525 75 0 0.0 0.0 0.00 0.00 0.00 80 1014.9
20260905125025 75 0 0.0 0.0 0.00 0.00 0.00 79 1014.9
20260905124548 75 0 0.0 0.0 0.00 0.00 0.00 80 1014.7
20260905124025 74 0 0.0 0.0 0.00 0.00 0.00 80 1014.6
20260905123524 74 0 0.0 0.0 0.00 0.00 0.00 80 1014.6
20260905123053 74 0 0.0 0.0 0.00 0.00 0.00 80 1014.5
20260905122528 74 0 0.0 0.0 0.00 0.00 0.00 80 1014.5
20260905122025 74 0 0.0 0.0 0.00 0.00 0.00 80 1014.5
20260905121550 74 0 0.0 0.0 0.00 0.00 0.00 80 1014.3
20260905121024 74 0 0.0 0.0 0.00 0.00 0.00 80 1014.2
20260905120525 74 0 0.0 0.0 0.00 0.00 0.00 80 1014.1
20260905120050 74 0 0.0 0.0 0.00 0.00 0.00 80 1014.1
20260905115521 74 0 0.0 0.0 0.00 0.00 0.00 80 1014.1
20260905115026 74 0 0.0 0.0 0.00 0.00 0.00 80 1014.1
20260905114550 74 0 0.0 0.0 0.00 0.00 0.00 80 1014.0
20260905114026 74 0 0.0 0.0 0.00 0.00 0.00 81 1013.9
20260905113523 74 0 0.0 0.0 0.00 0.00 0.00 81 1013.9
20260905113046 74 0 0.0 0.0 0.00 0.00 0.00 81 1013.8
20260905112523 74 0 0.0 0.9 0.00 0.00 0.00 81 1013.9
20260905112023 74 0 0.0 1.7 0.00 0.00 0.00 81 1013.8
20260905111553 74 0 0.0 2.6 0.00 0.00 0.00 81 1013.8
20260905111028 74 0 0.0 2.6 0.00 0.00 0.00 82 1014.0
20260905110524 73 0 0.0 0.0 0.00 0.00 0.00 83 1013.9
20260905110044 73 0 0.0 0.0 0.00 0.00 0.00 83 1013.8
20260905105521 73 0 0.0 0.0 0.00 0.00 0.00 83 1013.8
20260905105025 74 0 0.0 0.0 0.00 0.00 0.00 83 1013.8
20260905104540 74 0 0.0 0.0 0.00 0.00 0.00 83 1013.8
20260905104028 74 0 0.0 0.0 0.00 0.00 0.00 83 1013.7
20260905103525 74 0 0.0 0.0 0.00 0.00 0.00 83 1013.8
20260905103048 74 0 0.0 0.0 0.00 0.00 0.00 83 1013.8
20260905102525 74 0 0.0 0.0 0.00 0.00 0.00 83 1013.8
20260905102025 74 0 0.0 0.0 0.00 0.00 0.00 83 1013.8
20260905101552 74 0 0.0 0.0 0.00 0.00 0.00 83 1013.8
20260905101024 74 0 0.0 0.0 0.00 0.00 0.00 83 1013.7
20260905100523 74 0 0.0 0.0 0.00 0.00 0.00 83 1013.6
20260905100044 75 0 0.0 0.0 0.00 0.00 0.00 83 1013.7
20260905095524 75 0 0.0 0.0 0.00 0.00 0.00 83 1013.8
20260905095024 75 0 0.0 0.0 0.00 0.00 0.00 82 1013.8
20260905094552 75 0 0.0 0.0 0.00 0.00 0.00 82 1013.8
20260905094025 75 0 0.0 0.0 0.00 0.00 0.00 82 1013.9
20260905093523 75 0 0.0 0.0 0.00 0.00 0.00 81 1013.9
20260905093047 75 0 0.0 0.0 0.00 0.00 0.00 79 1013.9
20260905092524 75 0 0.0 0.0 0.00 0.00 0.00 79 1013.8
20260905092026 75 0 0.0 0.0 0.00 0.00 0.00 78 1013.9
20260905091547 75 0 0.0 0.0 0.00 0.00 0.00 78 1014.0
20260905091025 75 0 0.0 0.0 0.00 0.00 0.00 78 1014.0
20260905090524 75 0 0.0 0.0 0.00 0.00 0.00 77 1014.1
20260905090049 76 0 0.0 0.0 0.00 0.00 0.00 77 1014.0
20260905085523 76 0 0.0 0.0 0.00 0.00 0.00 76 1014.0
20260905085022 76 0 0.0 0.0 0.00 0.00 0.00 76 1013.9
20260905084601 76 0 0.0 0.0 0.00 0.00 0.00 76 1013.9
20260905084024 76 0 0.0 0.0 0.00 0.00 0.00 76 1013.8
20260905083524 76 0 0.0 0.0 0.00 0.00 0.00 75 1013.8
20260905083044 76 0 0.0 0.0 0.00 0.00 0.00 75 1013.9
20260905082524 76 0 0.0 0.0 0.00 0.00 0.00 75 1013.9
20260905082027 77 0 0.0 0.0 0.00 0.00 0.00 74 1013.9
20260905081544 77 0 0.0 0.0 0.00 0.00 0.00 74 1013.8
20260905081027 77 0 0.0 0.0 0.00 0.00 0.00 73 1013.8
20260905080524 77 0 0.0 0.0 0.00 0.00 0.00 73 1013.8
20260905080050 77 0 0.0 0.0 0.00 0.00 0.00 73 1013.8
20260905075528 77 0 0.0 0.0 0.00 0.00 0.00 72 1013.8
20260905075024 77 0 0.0 0.0 0.00 0.00 0.00 72 1013.8
20260905074544 78 0 0.0 0.0 0.00 0.00 0.00 72 1013.8
20260905074024 78 0 0.0 0.0 0.00 0.00 0.00 72 1013.9
20260905073525 78 0 0.0 0.0 0.00 0.00 0.00 72 1013.9
20260905073047 78 0 0.0 0.0 0.00 0.00 0.00 72 1013.9
20260905072525 78 0 0.0 0.0 0.00 0.00 0.00 72 1013.9
20260905072023 78 0 0.0 0.0 0.00 0.00 0.00 72 1013.9
20260905071544 78 0 0.0 0.0 0.00 0.00 0.00 72 1014.0
20260905071024 78 0 0.0 0.0 0.00 0.00 0.00 71 1013.9
20260905070524 78 0 0.0 0.0 0.00 0.00 0.00 71 1014.0
20260905070043 79 0 0.0 0.0 0.00 0.00 0.00 71 1014.0
20260905065522 79 0 0.0 0.0 0.00 0.00 0.00 70 1014.0
20260905065023 79 0 0.0 0.0 0.00 0.00 0.00 70 1014.0
20260905064548 79 0 0.0 0.0 0.00 0.00 0.00 70 1014.0
20260905064023 79 0 0.0 0.0 0.00 0.00 0.00 70 1014.0
20260905063529 79 0 0.0 0.0 0.00 0.00 0.00 70 1014.1
20260905063049 79 0 0.0 0.0 0.00 0.00 0.00 70 1014.0
20260905062529 79 0 0.0 0.0 0.00 0.00 0.00 70 1014.0
20260905062026 79 0 0.0 0.0 0.00 0.00 0.00 69 1014.1
20260905061541 79 0 0.0 0.0 0.00 0.00 0.00 69 1014.1
20260905061023 80 0 0.0 0.0 0.00 0.00 0.00 69 1014.1
20260905060524 80 0 0.0 0.0 0.00 0.00 0.00 69 1014.1
20260905060044 79 0 0.0 0.0 0.00 0.00 0.00 69 1014.1
20260905055526 80 0 0.0 0.0 0.00 0.00 0.00 70 1014.2
20260905055023 80 0 0.0 0.0 0.00 0.00 0.00 69 1014.1
20260905054551 80 0 0.0 0.9 0.00 0.00 0.00 68 1014.1
20260905054023 80 0 0.0 0.9 0.00 0.00 0.00 68 1014.1
20260905053524 80 0 0.0 0.0 0.00 0.00 0.00 68 1014.0
20260905053052 80 0 0.0 0.0 0.00 0.00 0.00 68 1013.9
20260905052527 80 0 0.0 0.0 0.00 0.00 0.00 68 1013.9
20260905052025 81 0 0.0 0.0 0.00 0.00 0.00 67 1013.9
20260905051542 81 0 0.0 0.0 0.00 0.00 0.00 67 1014.0
20260905051024 81 0 0.0 0.0 0.00 0.00 0.00 67 1013.9
20260905050526 81 0 0.0 0.0 0.00 0.00 0.00 66 1014.0
20260905050046 81 0 0.0 0.0 0.00 0.00 0.00 66 1014.0
20260905045524 81 0 0.0 0.0 0.00 0.00 0.00 66 1014.0
20260905045023 81 0 0.0 0.0 0.00 0.00 0.00 65 1014.1
20260905044548 82 0 0.0 0.0 0.00 0.00 0.00 65 1014.1
20260905044025 82 0 0.0 0.0 0.00 0.00 0.00 65 1014.0
20260905043524 82 0 0.0 0.0 0.00 0.00 0.00 65 1014.1
20260905043048 82 0 0.0 0.0 0.00 0.00 0.00 65 1014.1
20260905042524 82 0 0.0 0.0 0.00 0.00 0.00 65 1014.1
20260905042040 83 0 0.0 0.0 0.00 0.00 0.00 65 1014.1
20260905041545 83 0 0.0 0.0 0.00 0.00 0.00 64 1014.1
20260905041029 83 0 0.0 0.0 0.00 0.00 0.00 64 1014.0
20260905040525 84 0 0.0 0.9 0.00 0.00 0.00 63 1014.1
20260905040048 84 0 0.0 0.9 0.00 0.00 0.00 62 1014.0
20260905035522 84 0 0.0 2.6 0.00 0.00 0.00 62 1013.8
20260905035024 84 0 0.0 3.5 0.00 0.00 0.00 62 1013.8
20260905034549 84 0 0.0 3.5 0.00 0.00 0.00 62 1013.8
20260905034023 84 0 0.0 1.7 0.00 0.00 0.00 62 1013.8
20260905033523 84 0 0.0 1.7 0.00 0.00 0.00 62 1013.8
20260905033042 84 0 0.0 1.7 0.00 0.00 0.00 62 1013.9
20260905032523 84 0 0.0 1.7 0.00 0.00 0.00 62 1013.7
20260905032024 85 0 0.0 0.0 0.00 0.00 0.00 62 1013.7
20260905031542 85 0 0.0 0.0 0.00 0.00 0.00 62 1013.8
20260905031025 84 0 0.0 0.0 0.00 0.00 0.00 62 1013.7
20260905030525 84 0 0.0 0.0 0.00 0.00 0.00 62 1013.7
20260905030049 85 0 0.0 0.0 0.00 0.00 0.00 63 1013.7
20260905025523 85 0 0.0 0.0 0.00 0.00 0.00 62 1013.7
20260905025024 85 0 0.0 0.0 0.00 0.00 0.00 62 1013.6
20260905024613 85 0 0.0 0.0 0.00 0.00 0.00 62 1013.6
20260905024025 85 0 0.0 0.0 0.00 0.00 0.00 61 1013.5
20260905023524 85 0 0.0 0.0 0.00 0.00 0.00 61 1013.5
20260905023045 86 0 0.0 0.0 0.00 0.00 0.00 60 1013.5
20260905022523 86 0 0.0 0.0 0.00 0.00 0.00 60 1013.4
20260905022026 86 0 0.0 0.0 0.00 0.00 0.00 59 1013.3
20260905021543 86 0 0.0 0.0 0.00 0.00 0.00 58 1013.3
20260905021024 87 0 0.0 0.0 0.00 0.00 0.00 58 1013.2
20260905020523 87 0 0.0 0.0 0.00 0.00 0.00 58 1013.1
20260905020051 87 0 0.0 0.0 0.00 0.00 0.00 57 1013.1
20260905015523 88 0 0.0 0.0 0.00 0.00 0.00 57 1012.9
20260905015024 88 0 0.0 0.9 0.00 0.00 0.00 56 1012.8
20260905014545 88 0 0.0 0.9 0.00 0.00 0.00 55 1012.7
20260905014025 88 0 0.0 0.0 0.00 0.00 0.00 55 1012.8
20260905013526 88 0 0.0 0.0 0.00 0.00 0.00 55 1012.7
20260905013052 89 0 0.0 0.0 0.00 0.00 0.00 55 1012.6
20260905012523 89 0 0.0 0.0 0.00 0.00 0.00 55 1012.6
20260905012022 89 0 0.0 0.0 0.00 0.00 0.00 54 1012.4
20260905011556 89 0 0.0 0.0 0.00 0.00 0.00 53 1012.4
20260905011025 90 0 0.0 0.0 0.00 0.00 0.00 54 1012.4
20260905010522 90 0 0.0 0.0 0.00 0.00 0.00 53 1012.4
20260905010046 91 0 0.0 0.0 0.00 0.00 0.00 52 1012.4
20260905005525 91 0 0.0 0.0 0.00 0.00 0.00 51 1012.3
20260905005024 92 0 0.0 0.0 0.00 0.00 0.00 51 1012.3
20260905004550 92 0 0.0 0.0 0.00 0.00 0.00 50 1012.4
20260905004024 93 0 0.0 0.0 0.00 0.00 0.00 49 1012.4
20260905003524 93 0 0.0 0.0 0.00 0.00 0.00 49 1012.4
20260905003051 93 0 0.0 0.9 0.00 0.00 0.00 48 1012.5
20260905002522 94 0 0.0 1.7 0.00 0.00 0.00 48 1012.4
20260905002024 94 0 0.0 1.7 0.00 0.00 0.00 47 1012.4
20260905001547 94 0 0.0 1.7 0.00 0.00 0.00 47 1012.4
20260905001024 95 0 0.0 1.7 0.00 0.00 0.00 47 1012.4
20260905000526 95 0 0.0 3.5 0.00 0.00 0.00 47 1012.5
20260905000047 95 0 0.0 3.5 0.00 0.00 0.00 47 1012.5
20260904235523 95 0 0.0 3.5 0.00 0.00 0.00 46 1012.6
20260904235029 95 178 0.0 8.7 0.00 0.00 0.00 46 1012.6
20260904234550 95 210 1.7 8.7 0.00 0.00 0.00 46 1012.5
20260904234024 95 172 1.7 7.8 0.00 0.00 0.00 45 1012.7
20260904233524 95 0 2.6 7.0 0.00 0.00 0.00 45 1012.7
20260904233054 95 258 1.7 7.0 0.00 0.00 0.00 45 1012.7
20260904232526 95 171 1.7 7.0 0.00 0.00 0.00 45 1012.7
20260904232028 96 166 1.7 6.1 0.00 0.00 0.00 45 1012.7
20260904231552 96 159 1.7 7.0 0.00 0.00 0.00 45 1012.8
20260904231023 96 148 2.6 7.0 0.00 0.00 0.00 44 1012.7
20260904230524 97 159 1.7 6.1 0.00 0.00 0.00 44 1012.7
20260904230048 97 0 1.7 5.2 0.00 0.00 0.00 44 1012.8
20260904225528 97 0 0.0 6.1 0.00 0.00 0.00 45 1012.8
20260904225025 97 159 0.9 7.8 0.00 0.00 0.00 45 1012.8
20260904224548 97 232 2.6 7.8 0.00 0.00 0.00 44 1012.8
20260904224024 97 0 0.9 6.1 0.00 0.00 0.00 43 1012.7
20260904223526 97 198 2.6 7.0 0.00 0.00 0.00 43 1012.6
20260904223044 97 0 0.9 9.6 0.00 0.00 0.00 44 1012.6
20260904222521 96 226 2.6 9.6 0.00 0.00 0.00 44 1012.5
20260904222025 97 148 2.6 8.7 0.00 0.00 0.00 43 1012.6
20260904221541 96 0 1.7 9.6 0.00 0.00 0.00 43 1012.7
20260904221023 97 175 2.6 9.6 0.00 0.00 0.00 44 1012.7
20260904220523 97 197 0.9 10.4 0.00 0.00 0.00 43 1012.8
20260904220052 97 141 1.7 10.4 0.00 0.00 0.00 44 1012.7
20260904215525 97 163 0.9 9.6 0.00 0.00 0.00 43 1012.9
20260904215023 97 162 1.7 10.4 0.00 0.00 0.00 43 1012.9
20260904214549 97 171 2.6 10.4 0.00 0.00 0.00 42 1012.9
20260904214029 97 154 1.7 8.7 0.00 0.00 0.00 43 1013.0
20260904213525 96 195 2.6 10.4 0.00 0.00 0.00 43 1013.0
20260904213043 96 144 3.5 13.0 0.00 0.00 0.00 43 1013.0
20260904212523 96 172 4.3 13.0 0.00 0.00 0.00 42 1013.0
20260904212028 96 156 4.3 13.0 0.00 0.00 0.00 42 1013.1
20260904211547 97 169 3.5 12.2 0.00 0.00 0.00 42 1013.1
20260904211024 98 287 0.9 10.4 0.00 0.00 0.00 42 1013.2
20260904210525 97 74 0.9 11.3 0.00 0.00 0.00 43 1013.1
20260904210046 97 180 4.3 11.3 0.00 0.00 0.00 43 1013.3
20260904205525 97 185 2.6 9.6 0.00 0.00 0.00 43 1013.3
20260904205025 97 177 3.5 9.6 0.00 0.00 0.00 43 1013.3
20260904204542 97 141 2.6 8.7 0.00 0.00 0.00 42 1013.3
20260904204023 96 65 4.3 12.2 0.00 0.00 0.00 44 1013.3
20260904203523 97 169 1.7 13.0 0.00 0.00 0.00 45 1013.4
20260904203050 96 181 4.3 13.0 0.00 0.00 0.00 43 1013.5
20260904202523 96 100 1.7 8.7 0.00 0.00 0.00 44 1013.4
20260904202022 97 175 2.6 7.8 0.00 0.00 0.00 43 1013.6
20260904201547 97 0 2.6 7.0 0.00 0.00 0.00 45 1013.5
20260904201021 97 166 0.9 13.0 0.00 0.00 0.00 44 1013.6
20260904200524 96 144 2.6 13.0 0.00 0.00 0.00 45 1013.6
20260904200051 96 0 1.7 8.7 0.00 0.00 0.00 44 1013.6
20260904195525 96 94 2.6 9.6 0.00 0.00 0.00 45 1013.7
20260904195026 96 134 3.5 9.6 0.00 0.00 0.00 43 1013.8
20260904194543 96 168 1.7 9.6 0.00 0.00 0.00 45 1013.7
20260904194025 96 180 1.7 9.6 0.00 0.00 0.00 44 1013.8
20260904193523 96 124 2.6 9.6 0.00 0.00 0.00 45 1013.9
20260904193049 96 174 0.9 11.3 0.00 0.00 0.00 46 1013.9
20260904192524 95 164 4.3 11.3 0.00 0.00 0.00 46 1013.9
20260904192023 95 0 0.9 10.4 0.00 0.00 0.00 47 1013.9
20260904191545 95 215 3.5 10.4 0.00 0.00 0.00 47 1014.0
20260904191024 94 0 2.6 10.4 0.00 0.00 0.00 47 1014.0
20260904190522 95 138 2.6 9.6 0.00 0.00 0.00 46 1014.1
20260904190041 96 229 0.9 9.6 0.00 0.00 0.00 46 1014.1
20260904185524 95 0 0.9 8.7 0.00 0.00 0.00 46 1014.1
20260904185026 95 261 1.7 8.7 0.00 0.00 0.00 46 1014.1
20260904184558 95 181 1.7 7.8 0.00 0.00 0.00 46 1014.2
20260904184028 95 242 1.7 7.8 0.00 0.00 0.00 46 1014.1
20260904183523 94 290 0.9 8.7 0.00 0.00 0.00 46 1014.2
20260904183049 94 90 1.7 13.0 0.00 0.00 0.00 47 1014.3
20260904182524 94 333 3.5 13.0 0.00 0.00 0.00 47 1014.2
20260904182028 94 0 2.6 11.3 0.00 0.00 0.00 47 1014.2
20260904181545 94 172 2.6 12.2 0.00 0.00 0.00 48 1014.3
20260904181027 94 152 4.3 12.2 0.00 0.00 0.00 46 1014.2
20260904180526 94 261 0.9 10.4 0.00 0.00 0.00 46 1014.3
20260904180056 94 165 1.7 7.0 0.00 0.00 0.00 46 1014.3
20260904175521 94 0 1.7 13.9 0.00 0.00 0.00 47 1014.5
20260904175023 93 220 2.6 13.9 0.00 0.00 0.00 49 1014.6
20260904174542 93 180 3.5 10.4 0.00 0.00 0.00 47 1014.5
20260904174025 93 153 2.6 10.4 0.00 0.00 0.00 50 1014.7
20260904173524 93 213 3.5 12.2 0.00 0.00 0.00 49 1014.9
20260904173051 92 202 4.3 12.2 0.00 0.00 0.00 50 1014.9
20260904172523 92 203 1.7 10.4 0.00 0.00 0.00 49 1014.9
20260904172025 92 154 0.9 9.6 0.00 0.00 0.00 51 1014.9
20260904171549 91 256 4.3 12.2 0.00 0.00 0.00 50 1015.1
20260904171024 91 0 3.5 13.0 0.00 0.00 0.00 51 1015.2
20260904170524 91 173 4.3 13.0 0.00 0.00 0.00 51 1015.2
20260904170042 91 149 5.2 12.2 0.00 0.00 0.00 51 1015.2
20260904165524 91 147 2.6 12.2 0.00 0.00 0.00 51 1015.2
20260904165025 91 171 3.5 12.2 0.00 0.00 0.00 51 1015.2
20260904164542 91 191 2.6 12.2 0.00 0.00 0.00 51 1015.1
20260904164023 91 153 2.6 11.3 0.00 0.00 0.00 52 1015.1
20260904163523 90 0 3.5 12.2 0.00 0.00 0.00 53 1015.1
20260904163054 90 180 3.5 13.0 0.00 0.00 0.00 53 1015.2
20260904162527 90 250 2.6 13.0 0.00 0.00 0.00 53 1015.1
20260904162023 91 161 1.7 13.0 0.00 0.00 0.00 53 1015.1
20260904161545 90 0 1.7 10.4 0.00 0.00 0.00 55 1015.0
20260904161024 89 181 2.6 10.4 0.00 0.00 0.00 56 1015.1
20260904160525 88 147 2.6 10.4 0.00 0.00 0.00 57 1015.1
20260904160043 88 211 2.6 9.6 0.00 0.00 0.00 58 1015.2
20260904155525 88 148 0.9 7.8 0.00 0.00 0.00 60 1015.2
20260904155024 88 167 1.7 8.7 0.00 0.00 0.00 59 1015.2
20260904154544 88 0 1.7 8.7 0.00 0.00 0.00 60 1015.2
20260904154025 87 174 2.6 7.8 0.00 0.00 0.00 61 1015.3
20260904153523 87 175 1.7 8.7 0.00 0.00 0.00 61 1015.3
20260904153057 87 0 0.9 9.6 0.00 0.00 0.00 62 1015.3
20260904152525 86 220 2.6 10.4 0.00 0.00 0.00 63 1015.3
20260904152024 86 302 0.9 10.4 0.00 0.00 0.00 63 1015.3
20260904151542 86 333 1.7 12.2 0.00 0.00 0.00 62 1015.3
20260904151028 85 0 2.6 12.2 0.00 0.00 0.00 63 1015.3
20260904150525 85 198 3.5 12.2 0.00 0.00 0.00 63 1015.3
20260904150046 85 190 1.7 10.4 0.00 0.00 0.00 64 1015.3
20260904145523 85 0 1.7 7.8 0.00 0.00 0.00 64 1015.2
20260904145023 85 167 0.9 7.8 0.00 0.00 0.00 66 1015.1
20260904144545 84 0 0.9 10.4 0.00 0.00 0.00 67 1015.1
20260904144023 83 155 2.6 10.4 0.00 0.00 0.00 69 1015.1
20260904143523 83 135 2.6 9.6 0.00 0.00 0.00 69 1015.1
20260904143044 83 136 1.7 8.7 0.00 0.00 0.00 70 1015.2
20260904142525 82 132 1.7 10.4 0.00 0.00 0.00 71 1015.3
20260904142024 81 328 1.7 10.4 0.00 0.00 0.00 72 1015.2
20260904141604 81 168 3.5 9.6 0.00 0.00 0.00 73 1015.2
20260904141026 80 0 1.7 8.7 0.00 0.00 0.00 74 1015.2
20260904140525 80 192 1.7 7.8 0.00 0.00 0.00 74 1015.3
20260904140048 79 166 0.0 7.0 0.00 0.00 0.00 75 1015.3